Weather History for Houlton, ME

Change the Weather History Date:

Wednesday, January 29, 2014

  Actual Average Record
Temperature  
Mean Temperature 3 °F 11 °F  
Max Temperature 17 °F 22 °F 44 °F (1994)
Min Temperature -12 °F 0 °F -34 °F (1971)
Degree Days  
Heating Degree Days 62 54  
Month to date heating degree days 1472 1548  
Since 1 July heating degree days 5034 5068  
Cooling Degree Days 0 0  
Month to date cooling degree days 0 0  
Year to date cooling degree days 0 0  
Moisture  
Dew Point -9 °F    
Average Humidity 60    
Maximum Humidity 86    
Minimum Humidity 33    
Precipitation  
Precipitation 0.00 in 0.08 in 0.84 in (1977)
Month to date precipitation 4.18 2.68  
Year to date precipitation 4.18 2.68  
Sea Level Pressure  
Sea Level Pressure 29.98 in    
Wind  
Wind Speed 3 mph (SW)    
Max Wind Speed 13 mph    
Max Gust Speed 18 mph    
Visibility 10 miles    
Events      
T = Trace of Precipitation, MM = Missing Value Source: NWS Daily Summary

Daily Weather History Graph

Daily Weather History Graph

Search for Another Location

Airport:

Trip Planner

Search our weather history database for the weather conditions in past years. The results will help you decide how hot, cold, wet, or windy it might be!

Date:

Astronomy

Jan. 29, 2014 Rise Set
Actual Time 6:57 AM EST 4:31 PM EST
Civil Twilight 6:25 AM EST 5:04 PM EST
Nautical Twilight 5:48 AM EST 5:40 PM EST
Astronomical Twilight 5:13 AM EST 6:15 PM EST
Moon 5:31 AM EST (1/29) 3:27 PM EST (1/29)
Length of Visible Light 10h 39m
Length of Day
9h 34m
Waning Crescent, 2% of the Moon is Illuminated
Jan 29
Waning Crescent
Jan 30
New
Feb 6
First Quarter
Feb 14
Full
Feb 22
Last Quarter

Hourly Weather History & Observations

Time (EST) Temp. Windchill Dew Point Humidity Pressure Visibility Wind Dir Wind Speed Gust Speed Precip Events Conditions
12:53 AM -9.9 °F - -14.1 °F 82% 30.16 in 10.0 mi Calm Calm - N/A   Clear
1:53 AM -9.9 °F -19.2 °F -13.0 °F 86% 30.16 in 10.0 mi South 3.5 mph - N/A   Clear
2:53 AM -11.0 °F - -16.1 °F 78% 30.16 in 10.0 mi Calm Calm - N/A   Clear
3:53 AM -11.9 °F - -17.0 °F 78% 30.12 in 9.0 mi Calm Calm - N/A   Clear
4:53 AM -11.0 °F - -15.0 °F 83% 30.12 in 10.0 mi Calm Calm - N/A   Clear
5:53 AM -9.0 °F - -13.0 °F 83% 30.11 in 10.0 mi Calm Calm - N/A   Partly Cloudy
6:53 AM -9.0 °F - -13.0 °F 83% 30.10 in 10.0 mi Calm Calm - N/A   Scattered Clouds
7:53 AM -7.1 °F - -11.0 °F 83% 30.08 in 9.0 mi Calm Calm - N/A   Clear
8:53 AM -6.0 °F - -11.0 °F 79% 30.06 in 10.0 mi Calm Calm - N/A   Clear
9:53 AM 1.0 °F - -7.1 °F 69% 30.04 in 10.0 mi Calm Calm - N/A   Clear
10:53 AM 9.0 °F 0.6 °F -4.0 °F 56% 30.00 in 10.0 mi North 4.6 mph - N/A   Clear
11:53 AM 12.0 °F 2.7 °F -6.0 °F 44% 29.93 in 10.0 mi SSW 5.8 mph - N/A   Clear
12:53 PM 15.1 °F - -7.1 °F 37% 29.88 in 10.0 mi Calm Calm - N/A   Clear
1:53 PM 15.1 °F 4.2 °F -8.0 °F 36% 29.85 in 10.0 mi WSW 8.1 mph - N/A   Clear
2:53 PM 16.0 °F 5.3 °F -8.0 °F 34% 29.83 in 10.0 mi WSW 8.1 mph - N/A   Clear
3:53 PM 16.0 °F 5.3 °F -9.0 °F 32% 29.82 in 10.0 mi WSW 8.1 mph - N/A   Clear
4:53 PM 7.0 °F 0.1 °F -0.9 °F 70% 29.82 in 10.0 mi SSW 3.5 mph - N/A   Partly Cloudy
5:53 PM 12.0 °F 1.5 °F -6.0 °F 44% 29.84 in 10.0 mi SSW 6.9 mph - N/A   Clear
6:53 PM 8.1 °F -0.5 °F -5.1 °F 55% 29.88 in 10.0 mi SSW 4.6 mph - N/A   Mostly Cloudy
7:53 PM 10.0 °F 1.8 °F -6.0 °F 48% 29.90 in 10.0 mi South 4.6 mph - N/A   Overcast
8:53 PM 10.0 °F - -7.1 °F 46% 29.91 in 10.0 mi Calm Calm - N/A   Partly Cloudy
9:53 PM 3.9 °F -6.9 °F -6.0 °F 64% 29.93 in 10.0 mi WSW 5.8 mph - N/A   Clear
10:53 PM 8.1 °F -3.2 °F -4.0 °F 58% 29.95 in 10.0 mi WSW 6.9 mph - N/A   Clear
11:53 PM 10.0 °F -3.7 °F -4.0 °F 53% 29.98 in 10.0 mi West 10.4 mph - N/A   Partly Cloudy